Year,Month,Day,Hour,Minute,Value (Times are PST for temperature in C)
2015,02,15,00,00,5.50
2015,02,15,00,01,5.50
2015,02,15,00,02,5.40
2015,02,15,00,03,5.40
2015,02,15,00,04,5.40
2015,02,15,00,05,5.40
2015,02,15,00,06,5.40
2015,02,15,00,07,5.40
2015,02,15,00,08,5.40
2015,02,15,00,09,5.40
2015,02,15,00,10,5.40
2015,02,15,00,11,5.40
2015,02,15,00,12,5.40
2015,02,15,00,13,5.40
2015,02,15,00,14,5.40
2015,02,15,00,15,5.40
2015,02,15,00,16,5.50
2015,02,15,00,17,5.50
2015,02,15,00,18,5.50
2015,02,15,00,19,5.50
2015,02,15,00,20,5.50
2015,02,15,00,21,5.50
2015,02,15,00,22,5.40
2015,02,15,00,23,5.40
2015,02,15,00,24,5.40
2015,02,15,00,25,5.40
2015,02,15,00,26,5.40
2015,02,15,00,27,5.40
2015,02,15,00,28,5.40
2015,02,15,00,29,5.40
2015,02,15,00,30,5.40
2015,02,15,00,31,5.40
2015,02,15,00,32,5.40
2015,02,15,00,33,5.40
2015,02,15,00,34,5.40
2015,02,15,00,35,5.40
2015,02,15,00,36,5.40
2015,02,15,00,37,5.40
2015,02,15,00,38,5.40
2015,02,15,00,39,5.50
2015,02,15,00,40,5.50
2015,02,15,00,41,5.50
2015,02,15,00,42,5.50
2015,02,15,00,43,5.50
2015,02,15,00,44,5.50
2015,02,15,00,45,5.50
2015,02,15,00,46,5.50
2015,02,15,00,47,5.50
2015,02,15,00,48,5.50
2015,02,15,00,49,5.50
2015,02,15,00,50,5.40
2015,02,15,00,51,5.40
2015,02,15,00,52,5.40
2015,02,15,00,53,5.40
2015,02,15,00,54,5.40
2015,02,15,00,55,5.40
2015,02,15,00,56,5.40
2015,02,15,00,57,5.40
2015,02,15,00,58,5.40
2015,02,15,00,59,5.40
2015,02,15,01,00,5.40
2015,02,15,01,01,5.40
2015,02,15,01,02,5.40
2015,02,15,01,03,5.40
2015,02,15,01,04,5.40
2015,02,15,01,05,5.30
2015,02,15,01,06,5.30
2015,02,15,01,07,5.30
2015,02,15,01,08,5.30
2015,02,15,01,09,5.30
2015,02,15,01,10,5.30
2015,02,15,01,11,5.30
2015,02,15,01,12,5.20
2015,02,15,01,13,5.20
2015,02,15,01,14,5.20
2015,02,15,01,15,5.20
2015,02,15,01,16,5.20
2015,02,15,01,17,5.20
2015,02,15,01,18,5.20
2015,02,15,01,19,5.20
2015,02,15,01,20,5.20
2015,02,15,01,21,5.10
2015,02,15,01,22,5.10
2015,02,15,01,23,5.10
2015,02,15,01,24,5.10
2015,02,15,01,25,5.00
2015,02,15,01,26,5.00
2015,02,15,01,27,5.00
2015,02,15,01,28,4.90
2015,02,15,01,29,4.90
2015,02,15,01,30,4.90
2015,02,15,01,31,4.90
2015,02,15,01,32,4.90
2015,02,15,01,33,4.80
2015,02,15,01,34,4.80
2015,02,15,01,35,4.80
2015,02,15,01,36,4.80
2015,02,15,01,37,4.80
2015,02,15,01,38,4.70
2015,02,15,01,39,4.70
2015,02,15,01,40,4.70
2015,02,15,01,41,4.60
2015,02,15,01,42,4.60
2015,02,15,01,43,4.60
2015,02,15,01,44,4.60
2015,02,15,01,45,4.60
2015,02,15,01,46,4.60
2015,02,15,01,47,4.50
2015,02,15,01,48,4.50
2015,02,15,01,49,4.50
2015,02,15,01,50,4.50
2015,02,15,01,51,4.50
2015,02,15,01,52,4.40
2015,02,15,01,53,4.40
2015,02,15,01,54,4.40
2015,02,15,01,55,4.40
2015,02,15,01,56,4.40
2015,02,15,01,57,4.40
2015,02,15,01,58,4.40
2015,02,15,01,59,4.40
2015,02,15,02,00,4.40
2015,02,15,02,01,4.40
2015,02,15,02,02,4.30
2015,02,15,02,03,4.30
2015,02,15,02,04,4.30
2015,02,15,02,05,4.30
2015,02,15,02,06,4.30
2015,02,15,02,07,4.30
2015,02,15,02,08,4.30
2015,02,15,02,09,4.30
2015,02,15,02,10,4.30
2015,02,15,02,11,4.30
2015,02,15,02,12,4.30
2015,02,15,02,13,4.30
2015,02,15,02,14,4.30
2015,02,15,02,15,4.30
2015,02,15,02,16,4.30
2015,02,15,02,17,4.30
2015,02,15,02,18,4.20
2015,02,15,02,19,4.20
2015,02,15,02,20,4.20
2015,02,15,02,21,4.20
2015,02,15,02,22,4.20
2015,02,15,02,23,4.10
2015,02,15,02,24,4.10
2015,02,15,02,25,4.00
2015,02,15,02,26,4.00
2015,02,15,02,27,3.90
2015,02,15,02,28,3.90
2015,02,15,02,29,3.90
2015,02,15,02,30,3.90
2015,02,15,02,31,3.80
2015,02,15,02,32,3.80
2015,02,15,02,33,3.80
2015,02,15,02,34,3.80
2015,02,15,02,35,3.80
2015,02,15,02,36,3.80
2015,02,15,02,37,3.70
2015,02,15,02,38,3.70
2015,02,15,02,39,3.70
2015,02,15,02,40,3.70
2015,02,15,02,41,3.70
2015,02,15,02,42,3.70
2015,02,15,02,43,3.70
2015,02,15,02,44,3.70
2015,02,15,02,45,3.70
2015,02,15,02,46,3.70
2015,02,15,02,47,3.70
2015,02,15,02,48,3.70
2015,02,15,02,49,3.70
2015,02,15,02,50,3.70
2015,02,15,02,51,3.70
2015,02,15,02,52,3.70
2015,02,15,02,53,3.60
2015,02,15,02,54,3.60
2015,02,15,02,55,3.60
2015,02,15,02,56,3.60
2015,02,15,02,57,3.60
2015,02,15,02,58,3.60
2015,02,15,02,59,3.60
2015,02,15,03,00,3.60
2015,02,15,03,01,3.50
2015,02,15,03,02,3.50
2015,02,15,03,03,3.50
2015,02,15,03,04,3.50
2015,02,15,03,05,3.40
2015,02,15,03,06,3.40
2015,02,15,03,07,3.40
2015,02,15,03,08,3.40
2015,02,15,03,09,3.40
2015,02,15,03,10,3.40
2015,02,15,03,11,3.40
2015,02,15,03,12,3.30
2015,02,15,03,13,3.30
2015,02,15,03,14,3.30
2015,02,15,03,15,3.30
2015,02,15,03,16,3.30
2015,02,15,03,17,3.30
2015,02,15,03,18,3.30
2015,02,15,03,19,3.20
2015,02,15,03,20,3.20
2015,02,15,03,21,3.20
2015,02,15,03,22,3.20
2015,02,15,03,23,3.30
2015,02,15,03,24,3.30
2015,02,15,03,25,3.30
2015,02,15,03,26,3.30
2015,02,15,03,27,3.30
2015,02,15,03,28,3.30
2015,02,15,03,29,3.30
2015,02,15,03,30,3.30
2015,02,15,03,31,3.30
2015,02,15,03,32,3.30
2015,02,15,03,33,3.20
2015,02,15,03,34,3.20
2015,02,15,03,35,3.20
2015,02,15,03,36,3.20
2015,02,15,03,37,3.20
2015,02,15,03,38,3.20
2015,02,15,03,39,3.20
2015,02,15,03,40,3.20
2015,02,15,03,41,3.10
2015,02,15,03,42,3.10
2015,02,15,03,43,3.10
2015,02,15,03,44,3.10
2015,02,15,03,45,3.10
2015,02,15,03,46,3.10
2015,02,15,03,47,3.10
2015,02,15,03,48,3.10
2015,02,15,03,49,3.10
2015,02,15,03,50,3.10
2015,02,15,03,51,3.10
2015,02,15,03,52,3.10
2015,02,15,03,53,3.10
2015,02,15,03,54,3.10
2015,02,15,03,55,3.10
2015,02,15,03,56,3.10
2015,02,15,03,57,3.00
2015,02,15,03,58,3.00
2015,02,15,03,59,3.00
2015,02,15,04,00,2.90
2015,02,15,04,01,2.90
2015,02,15,04,02,2.90
2015,02,15,04,03,2.90
2015,02,15,04,04,2.90
2015,02,15,04,05,2.80
2015,02,15,04,06,2.80
2015,02,15,04,07,2.80
2015,02,15,04,08,2.80
2015,02,15,04,09,2.80
2015,02,15,04,10,2.80
2015,02,15,04,11,2.80
2015,02,15,04,12,2.80
2015,02,15,04,13,2.80
2015,02,15,04,14,2.80
2015,02,15,04,15,2.80
2015,02,15,04,16,2.80
2015,02,15,04,17,2.80
2015,02,15,04,18,2.80
2015,02,15,04,19,2.80
2015,02,15,04,20,2.70
2015,02,15,04,21,2.70
2015,02,15,04,22,2.70
2015,02,15,04,23,2.70
2015,02,15,04,24,2.70
2015,02,15,04,25,2.70
2015,02,15,04,26,2.70
2015,02,15,04,27,2.70
2015,02,15,04,28,2.70
2015,02,15,04,29,2.60
2015,02,15,04,30,2.60
2015,02,15,04,31,2.70
2015,02,15,04,32,2.70
2015,02,15,04,33,2.70
2015,02,15,04,34,2.70
2015,02,15,04,35,2.70
2015,02,15,04,36,2.70
2015,02,15,04,37,2.70
2015,02,15,04,38,2.70
2015,02,15,04,39,2.70
2015,02,15,04,40,2.70
2015,02,15,04,41,2.70
2015,02,15,04,42,2.60
2015,02,15,04,43,2.60
2015,02,15,04,44,2.70
2015,02,15,04,45,2.70
2015,02,15,04,46,2.70
2015,02,15,04,47,2.70
2015,02,15,04,48,2.70
2015,02,15,04,49,2.70
2015,02,15,04,50,2.70
2015,02,15,04,51,2.70
2015,02,15,04,52,2.70
2015,02,15,04,53,2.70
2015,02,15,04,54,2.70
2015,02,15,04,55,2.70
2015,02,15,04,56,2.70
2015,02,15,04,57,2.70
2015,02,15,04,58,2.70
2015,02,15,04,59,2.70
2015,02,15,05,00,2.60
2015,02,15,05,01,2.60
2015,02,15,05,02,2.60
2015,02,15,05,03,2.60
2015,02,15,05,04,2.60
2015,02,15,05,05,2.60
2015,02,15,05,06,2.60
2015,02,15,05,07,2.60
2015,02,15,05,08,2.60
2015,02,15,05,09,2.60
2015,02,15,05,10,2.60
2015,02,15,05,11,2.60
2015,02,15,05,12,2.60
2015,02,15,05,13,2.60
2015,02,15,05,14,2.60
2015,02,15,05,15,2.60
2015,02,15,05,16,2.60
2015,02,15,05,17,2.50
2015,02,15,05,18,2.60
2015,02,15,05,19,2.50
2015,02,15,05,20,2.50
2015,02,15,05,21,2.50
2015,02,15,05,22,2.50
2015,02,15,05,23,2.50
2015,02,15,05,24,2.50
2015,02,15,05,25,2.50
2015,02,15,05,26,2.40
2015,02,15,05,27,2.40
2015,02,15,05,28,2.40
2015,02,15,05,29,2.40
2015,02,15,05,30,2.50
2015,02,15,05,31,2.50
2015,02,15,05,32,2.60
2015,02,15,05,33,2.60
2015,02,15,05,34,2.60
2015,02,15,05,35,2.60
2015,02,15,05,36,2.60
2015,02,15,05,37,2.50
2015,02,15,05,38,2.50
2015,02,15,05,39,2.50
2015,02,15,05,40,2.40
2015,02,15,05,41,2.40
2015,02,15,05,42,2.40
2015,02,15,05,43,2.40
2015,02,15,05,44,2.30
2015,02,15,05,45,2.30
2015,02,15,05,46,2.30
2015,02,15,05,47,2.30
2015,02,15,05,48,2.30
2015,02,15,05,49,2.30
2015,02,15,05,50,2.30
2015,02,15,05,51,2.30
2015,02,15,05,52,2.30
2015,02,15,05,53,2.30
2015,02,15,05,54,2.30
2015,02,15,05,55,2.30
2015,02,15,05,56,2.30
2015,02,15,05,57,2.30
2015,02,15,05,58,2.30
2015,02,15,05,59,2.20
2015,02,15,06,00,2.20
2015,02,15,06,01,2.20
2015,02,15,06,02,2.20
2015,02,15,06,03,2.20
2015,02,15,06,04,2.20
2015,02,15,06,05,2.20
2015,02,15,06,06,2.20
2015,02,15,06,07,2.20
2015,02,15,06,08,2.20
2015,02,15,06,09,2.20
2015,02,15,06,10,2.20
2015,02,15,06,11,2.20
2015,02,15,06,12,2.20
2015,02,15,06,13,2.20
2015,02,15,06,14,2.20
2015,02,15,06,15,2.10
2015,02,15,06,16,2.10
2015,02,15,06,17,2.10
2015,02,15,06,18,2.10
2015,02,15,06,19,2.10
2015,02,15,06,20,2.10
2015,02,15,06,21,2.10
2015,02,15,06,22,2.10
2015,02,15,06,23,2.10
2015,02,15,06,24,2.10
2015,02,15,06,25,2.10
2015,02,15,06,26,2.10
2015,02,15,06,27,2.10
2015,02,15,06,28,2.10
2015,02,15,06,29,2.10
2015,02,15,06,30,2.00
2015,02,15,06,31,2.00
2015,02,15,06,32,2.00
2015,02,15,06,33,2.00
2015,02,15,06,34,2.00
2015,02,15,06,35,2.00
2015,02,15,06,36,2.00
2015,02,15,06,37,2.00
2015,02,15,06,38,2.00
2015,02,15,06,39,2.00
2015,02,15,06,40,2.00
2015,02,15,06,41,2.00
2015,02,15,06,42,2.00
2015,02,15,06,43,2.00
2015,02,15,06,44,2.00
2015,02,15,06,45,2.00
2015,02,15,06,46,2.00
2015,02,15,06,47,1.90
2015,02,15,06,48,1.90
2015,02,15,06,49,1.90
2015,02,15,06,50,1.90
2015,02,15,06,51,1.90
2015,02,15,06,52,1.90
2015,02,15,06,53,1.90
2015,02,15,06,54,1.90
2015,02,15,06,55,1.90
2015,02,15,06,56,1.90
2015,02,15,06,57,1.90
2015,02,15,06,58,1.90
2015,02,15,06,59,2.00
2015,02,15,07,00,2.00
2015,02,15,07,01,2.00
2015,02,15,07,02,1.90
2015,02,15,07,03,1.90
2015,02,15,07,04,1.90
2015,02,15,07,05,1.90
2015,02,15,07,06,1.90
2015,02,15,07,07,1.90
2015,02,15,07,08,1.90
2015,02,15,07,09,1.90
2015,02,15,07,10,1.90
2015,02,15,07,11,1.90
2015,02,15,07,12,1.90
2015,02,15,07,13,1.80
2015,02,15,07,14,1.80
2015,02,15,07,15,1.80
2015,02,15,07,16,1.80
2015,02,15,07,17,1.80
2015,02,15,07,18,1.80
2015,02,15,07,19,1.80
2015,02,15,07,20,1.80
2015,02,15,07,21,1.80
2015,02,15,07,22,1.80
2015,02,15,07,23,1.80
2015,02,15,07,24,1.80
2015,02,15,07,25,1.70
2015,02,15,07,26,1.70
2015,02,15,07,27,1.70
2015,02,15,07,28,1.70
2015,02,15,07,29,1.80
2015,02,15,07,30,1.80
2015,02,15,07,31,1.80
2015,02,15,07,32,1.80
2015,02,15,07,33,1.80
2015,02,15,07,34,1.80
2015,02,15,07,35,1.80
2015,02,15,07,36,1.80
2015,02,15,07,37,1.80
2015,02,15,07,38,1.80
2015,02,15,07,39,1.80
2015,02,15,07,40,1.80
2015,02,15,07,41,1.80
2015,02,15,07,42,1.80
2015,02,15,07,43,1.90
2015,02,15,07,44,1.90
2015,02,15,07,45,1.90
2015,02,15,07,46,1.90
2015,02,15,07,47,2.00
2015,02,15,07,48,2.00
2015,02,15,07,49,2.10
2015,02,15,07,50,2.10
2015,02,15,07,51,2.10
2015,02,15,07,52,2.10
2015,02,15,07,53,2.10
2015,02,15,07,54,2.10
2015,02,15,07,55,2.10
2015,02,15,07,56,2.00
2015,02,15,07,57,2.00
2015,02,15,07,58,2.00
2015,02,15,07,59,2.00
2015,02,15,08,00,2.00
2015,02,15,08,01,2.00
2015,02,15,08,02,2.00
2015,02,15,08,03,2.00
2015,02,15,08,04,2.00
2015,02,15,08,05,2.00
2015,02,15,08,06,2.00
2015,02,15,08,07,2.00
2015,02,15,08,08,2.00
2015,02,15,08,09,2.00
2015,02,15,08,10,2.00
2015,02,15,08,11,2.00
2015,02,15,08,12,2.00
2015,02,15,08,13,2.00
2015,02,15,08,14,2.10
2015,02,15,08,15,2.10
2015,02,15,08,16,2.10
2015,02,15,08,17,2.10
2015,02,15,08,18,2.10
2015,02,15,08,19,2.10
2015,02,15,08,20,2.10
2015,02,15,08,21,2.10
2015,02,15,08,22,2.10
2015,02,15,08,23,2.10
2015,02,15,08,24,2.10
2015,02,15,08,25,2.10
2015,02,15,08,26,2.10
2015,02,15,08,27,2.10
2015,02,15,08,28,2.20
2015,02,15,08,29,2.20
2015,02,15,08,30,2.20
2015,02,15,08,31,2.30
2015,02,15,08,32,2.30
2015,02,15,08,33,2.30
2015,02,15,08,34,2.30
2015,02,15,08,35,2.30
2015,02,15,08,36,2.30
2015,02,15,08,37,2.30
2015,02,15,08,38,2.30
2015,02,15,08,39,2.30
2015,02,15,08,40,2.30
2015,02,15,08,41,2.30
2015,02,15,08,42,2.30
2015,02,15,08,43,2.40
2015,02,15,08,44,2.40
2015,02,15,08,45,2.50
2015,02,15,08,46,2.50
2015,02,15,08,47,2.60
2015,02,15,08,48,2.60
2015,02,15,08,49,2.70
2015,02,15,08,50,2.70
2015,02,15,08,51,2.70
2015,02,15,08,52,2.80
2015,02,15,08,53,2.80
2015,02,15,08,54,2.90
2015,02,15,08,55,3.00
2015,02,15,08,56,3.10
2015,02,15,08,57,3.10
2015,02,15,08,58,3.10
2015,02,15,08,59,3.10
2015,02,15,09,00,3.30
2015,02,15,09,01,3.70
2015,02,15,09,02,3.80
2015,02,15,09,03,3.80
2015,02,15,09,04,3.80
2015,02,15,09,05,3.90
2015,02,15,09,06,3.90
2015,02,15,09,07,3.80
2015,02,15,09,08,3.90
2015,02,15,09,09,3.90
2015,02,15,09,10,4.00
2015,02,15,09,11,4.00
2015,02,15,09,12,4.10
2015,02,15,09,13,4.10
2015,02,15,09,14,4.10
2015,02,15,09,15,4.10
2015,02,15,09,16,4.20
2015,02,15,09,17,4.20
2015,02,15,09,18,4.20
2015,02,15,09,19,4.20
2015,02,15,09,20,4.20
2015,02,15,09,21,4.20
2015,02,15,09,22,4.30
2015,02,15,09,23,4.40
2015,02,15,09,24,4.50
2015,02,15,09,25,4.60
2015,02,15,09,26,4.60
2015,02,15,09,27,4.70
2015,02,15,09,28,4.70
2015,02,15,09,29,4.70
2015,02,15,09,30,4.60
2015,02,15,09,31,4.70
2015,02,15,09,32,4.70
2015,02,15,09,33,4.80
2015,02,15,09,34,4.80
2015,02,15,09,35,4.80
2015,02,15,09,36,4.80
2015,02,15,09,37,4.80
2015,02,15,09,38,4.90
2015,02,15,09,39,4.90
2015,02,15,09,40,4.90
2015,02,15,09,41,5.00
2015,02,15,09,42,5.10
2015,02,15,09,43,5.20
2015,02,15,09,44,5.20
2015,02,15,09,45,5.30
2015,02,15,09,46,5.30
2015,02,15,09,47,5.30
2015,02,15,09,48,5.30
2015,02,15,09,49,5.40
2015,02,15,09,50,5.40
2015,02,15,09,51,5.50
2015,02,15,09,52,5.60
2015,02,15,09,53,5.70
2015,02,15,09,54,5.70
2015,02,15,09,55,5.80
2015,02,15,09,56,5.80
2015,02,15,09,57,5.80
2015,02,15,09,58,5.90
2015,02,15,09,59,6.00
2015,02,15,10,00,6.10
2015,02,15,10,01,6.20
2015,02,15,10,02,6.30
2015,02,15,10,03,6.40
2015,02,15,10,04,6.50
2015,02,15,10,05,6.60
2015,02,15,10,06,6.80
2015,02,15,10,07,6.90
2015,02,15,10,08,7.00
2015,02,15,10,09,7.10
2015,02,15,10,10,7.10
2015,02,15,10,11,7.20
2015,02,15,10,12,7.20
2015,02,15,10,13,7.20
2015,02,15,10,14,7.20
2015,02,15,10,15,7.20
2015,02,15,10,16,7.20
2015,02,15,10,17,7.20
2015,02,15,10,18,7.10
2015,02,15,10,19,7.10
2015,02,15,10,20,7.10
2015,02,15,10,21,7.10
2015,02,15,10,22,7.10
2015,02,15,10,23,7.10
2015,02,15,10,24,7.20
2015,02,15,10,25,7.20
2015,02,15,10,26,7.20
2015,02,15,10,27,7.20
2015,02,15,10,28,7.20
2015,02,15,10,29,7.20
2015,02,15,10,30,7.20
2015,02,15,10,31,7.20
2015,02,15,10,32,7.30
2015,02,15,10,33,7.40
2015,02,15,10,34,7.40
2015,02,15,10,35,7.50
2015,02,15,10,36,7.60
2015,02,15,10,37,7.70
2015,02,15,10,38,7.80
2015,02,15,10,39,7.90
2015,02,15,10,40,8.00
2015,02,15,10,41,8.10
2015,02,15,10,42,8.10
2015,02,15,10,43,8.10
2015,02,15,10,44,8.00
2015,02,15,10,45,8.10
2015,02,15,10,46,8.10
2015,02,15,10,47,8.20
2015,02,15,10,48,8.30
2015,02,15,10,49,8.30
2015,02,15,10,50,8.40
2015,02,15,10,51,8.40
2015,02,15,10,52,8.40
2015,02,15,10,53,8.50
2015,02,15,10,54,8.50
2015,02,15,10,55,8.50
2015,02,15,10,56,8.50
2015,02,15,10,57,8.60
2015,02,15,10,58,8.70
2015,02,15,10,59,8.70
2015,02,15,11,00,8.80
2015,02,15,11,01,8.90
2015,02,15,11,02,8.90
2015,02,15,11,03,9.00
2015,02,15,11,04,9.00
2015,02,15,11,05,9.00
2015,02,15,11,06,9.00
2015,02,15,11,07,9.10
2015,02,15,11,08,9.10
2015,02,15,11,09,9.10
2015,02,15,11,10,9.10
2015,02,15,11,11,9.20
2015,02,15,11,12,9.20
2015,02,15,11,13,9.20
2015,02,15,11,14,9.30
2015,02,15,11,15,9.30
2015,02,15,11,16,9.30
2015,02,15,11,17,9.40
2015,02,15,11,18,9.40
2015,02,15,11,19,9.50
2015,02,15,11,20,9.50
2015,02,15,11,21,9.50
2015,02,15,11,22,9.50
2015,02,15,11,23,9.50
2015,02,15,11,24,9.60
2015,02,15,11,25,9.70
2015,02,15,11,26,9.70
2015,02,15,11,27,9.80
2015,02,15,11,28,9.90
2015,02,15,11,29,9.90
2015,02,15,11,30,9.90
2015,02,15,11,31,10.00
2015,02,15,11,32,10.00
2015,02,15,11,33,10.10
2015,02,15,11,34,10.10
2015,02,15,11,35,10.10
2015,02,15,11,36,10.20
2015,02,15,11,37,10.20
2015,02,15,11,38,10.20
2015,02,15,11,39,10.20
2015,02,15,11,40,10.30
2015,02,15,11,41,10.30
2015,02,15,11,42,10.40
2015,02,15,11,43,10.50
2015,02,15,11,44,10.50
2015,02,15,11,45,10.50
2015,02,15,11,46,10.60
2015,02,15,11,47,10.70
2015,02,15,11,48,10.70
2015,02,15,11,49,10.70
2015,02,15,11,50,10.80
2015,02,15,11,51,10.90
2015,02,15,11,52,11.00
2015,02,15,11,53,11.10
2015,02,15,11,54,11.10
2015,02,15,11,55,11.20
2015,02,15,11,56,11.20
2015,02,15,11,57,11.20
2015,02,15,11,58,11.10
2015,02,15,11,59,11.10
2015,02,15,12,00,11.10
2015,02,15,12,01,11.10
2015,02,15,12,02,11.20
2015,02,15,12,03,11.20
2015,02,15,12,04,11.30
2015,02,15,12,05,11.30
2015,02,15,12,06,11.40
2015,02,15,12,07,11.30
2015,02,15,12,08,11.40
2015,02,15,12,09,11.40
2015,02,15,12,10,11.40
2015,02,15,12,11,11.40
2015,02,15,12,12,11.50
2015,02,15,12,13,11.60
2015,02,15,12,14,11.60
2015,02,15,12,15,11.60
2015,02,15,12,16,11.60
2015,02,15,12,17,11.70
2015,02,15,12,18,11.50
2015,02,15,12,19,11.40
2015,02,15,12,20,11.20
2015,02,15,12,21,11.10
2015,02,15,12,22,11.10
2015,02,15,12,23,11.10
2015,02,15,12,24,11.20
2015,02,15,12,25,11.30
2015,02,15,12,26,11.50
2015,02,15,12,27,11.60
2015,02,15,12,28,11.70
2015,02,15,12,29,11.80
2015,02,15,12,30,11.90
2015,02,15,12,31,11.90
2015,02,15,12,32,12.00
2015,02,15,12,33,12.10
2015,02,15,12,34,12.20
2015,02,15,12,35,12.20
2015,02,15,12,36,12.20
2015,02,15,12,37,12.20
2015,02,15,12,38,12.30
2015,02,15,12,39,12.20
2015,02,15,12,40,12.10
2015,02,15,12,41,12.00
2015,02,15,12,42,11.90
2015,02,15,12,43,11.80
2015,02,15,12,44,11.70
2015,02,15,12,45,11.70
2015,02,15,12,46,11.70
2015,02,15,12,47,11.70
2015,02,15,12,48,11.70
2015,02,15,12,49,11.60
2015,02,15,12,50,11.50
2015,02,15,12,51,11.30
2015,02,15,12,52,11.30
2015,02,15,12,53,11.20
2015,02,15,12,54,11.10
2015,02,15,12,55,11.10
2015,02,15,12,56,11.10
2015,02,15,12,57,11.10
2015,02,15,12,58,11.10
2015,02,15,12,59,11.10
2015,02,15,13,00,11.10
2015,02,15,13,01,11.10
2015,02,15,13,02,11.20
2015,02,15,13,03,11.10
2015,02,15,13,04,11.10
2015,02,15,13,05,11.20
2015,02,15,13,06,11.20
2015,02,15,13,07,11.20
2015,02,15,13,08,11.20
2015,02,15,13,09,11.20
2015,02,15,13,10,11.30
2015,02,15,13,11,11.30
2015,02,15,13,12,11.30
2015,02,15,13,13,11.40
2015,02,15,13,14,11.40
2015,02,15,13,15,11.50
2015,02,15,13,16,11.50
2015,02,15,13,17,11.40
2015,02,15,13,18,11.50
2015,02,15,13,19,11.50
2015,02,15,13,20,11.50
2015,02,15,13,21,11.60
2015,02,15,13,22,11.60
2015,02,15,13,23,11.70
2015,02,15,13,24,11.70
2015,02,15,13,25,11.70
2015,02,15,13,26,11.80
2015,02,15,13,27,11.80
2015,02,15,13,28,11.80
2015,02,15,13,29,11.90
2015,02,15,13,30,11.90
2015,02,15,13,31,12.00
2015,02,15,13,32,12.10
2015,02,15,13,33,12.10
2015,02,15,13,34,12.10
2015,02,15,13,35,12.20
2015,02,15,13,36,12.20
2015,02,15,13,37,12.20
2015,02,15,13,38,12.20
2015,02,15,13,39,12.10
2015,02,15,13,40,12.10
2015,02,15,13,41,12.00
2015,02,15,13,42,11.90
2015,02,15,13,43,11.90
2015,02,15,13,44,12.00
2015,02,15,13,45,12.00
2015,02,15,13,46,12.10
2015,02,15,13,47,12.20
2015,02,15,13,48,12.30
2015,02,15,13,49,12.30
2015,02,15,13,50,12.30
2015,02,15,13,51,12.30
2015,02,15,13,52,12.30
2015,02,15,13,53,12.20
2015,02,15,13,54,12.20
2015,02,15,13,55,12.20
2015,02,15,13,56,12.20
2015,02,15,13,57,12.30
2015,02,15,13,58,12.30
2015,02,15,13,59,12.20
2015,02,15,14,00,12.20
2015,02,15,14,01,12.20
2015,02,15,14,02,12.30
2015,02,15,14,03,12.30
2015,02,15,14,04,12.30
2015,02,15,14,05,12.30
2015,02,15,14,06,12.30
2015,02,15,14,07,12.40
2015,02,15,14,08,12.40
2015,02,15,14,09,12.40
2015,02,15,14,10,12.40
2015,02,15,14,11,12.40
2015,02,15,14,12,12.40
2015,02,15,14,13,12.40
2015,02,15,14,14,12.40
2015,02,15,14,15,12.40
2015,02,15,14,16,12.40
2015,02,15,14,17,12.50
2015,02,15,14,18,12.50
2015,02,15,14,19,12.50
2015,02,15,14,20,12.60
2015,02,15,14,21,12.70
2015,02,15,14,22,12.70
2015,02,15,14,23,12.70
2015,02,15,14,24,12.70
2015,02,15,14,25,12.60
2015,02,15,14,26,12.50
2015,02,15,14,27,12.40
2015,02,15,14,28,12.50
2015,02,15,14,29,12.50
2015,02,15,14,30,12.50
2015,02,15,14,31,12.60
2015,02,15,14,32,12.60
2015,02,15,14,33,12.60
2015,02,15,14,34,12.70
2015,02,15,14,35,12.70
2015,02,15,14,36,12.70
2015,02,15,14,37,12.70
2015,02,15,14,38,12.60
2015,02,15,14,39,12.60
2015,02,15,14,40,12.70
2015,02,15,14,41,12.70
2015,02,15,14,42,12.80
2015,02,15,14,43,12.90
2015,02,15,14,44,12.90
2015,02,15,14,45,12.90
2015,02,15,14,46,12.90
2015,02,15,14,47,12.90
2015,02,15,14,48,12.90
2015,02,15,14,49,12.90
2015,02,15,14,50,12.80
2015,02,15,14,51,12.70
2015,02,15,14,52,12.60
2015,02,15,14,53,12.50
2015,02,15,14,54,12.50
2015,02,15,14,55,12.50
2015,02,15,14,56,12.50
2015,02,15,14,57,12.60
2015,02,15,14,58,12.60
2015,02,15,14,59,12.70
2015,02,15,15,00,12.70
2015,02,15,15,01,12.80
2015,02,15,15,02,12.80
2015,02,15,15,03,12.80
2015,02,15,15,04,12.70
2015,02,15,15,05,12.70
2015,02,15,15,06,12.70
2015,02,15,15,07,12.80
2015,02,15,15,08,12.80
2015,02,15,15,09,12.70
2015,02,15,15,10,12.80
2015,02,15,15,11,12.70
2015,02,15,15,12,12.70
2015,02,15,15,13,12.60
2015,02,15,15,14,12.70
2015,02,15,15,15,12.70
2015,02,15,15,16,12.70
2015,02,15,15,17,12.70
2015,02,15,15,18,12.70
2015,02,15,15,19,12.80
2015,02,15,15,20,12.90
2015,02,15,15,21,12.90
2015,02,15,15,22,12.90
2015,02,15,15,23,12.90
2015,02,15,15,24,12.90
2015,02,15,15,25,12.90
2015,02,15,15,26,12.90
2015,02,15,15,27,12.90
2015,02,15,15,28,12.90
2015,02,15,15,29,12.90
2015,02,15,15,30,12.80
2015,02,15,15,31,12.70
2015,02,15,15,32,12.70
2015,02,15,15,33,12.60
2015,02,15,15,34,12.60
2015,02,15,15,35,12.50
2015,02,15,15,36,12.40
2015,02,15,15,37,12.40
2015,02,15,15,38,12.40
2015,02,15,15,39,12.40
2015,02,15,15,40,12.40
2015,02,15,15,41,12.40
2015,02,15,15,42,12.40
2015,02,15,15,43,12.40
2015,02,15,15,44,12.40
2015,02,15,15,45,12.40
2015,02,15,15,46,12.40
2015,02,15,15,47,12.30
2015,02,15,15,48,12.20
2015,02,15,15,49,12.20
2015,02,15,15,50,12.20
2015,02,15,15,51,12.20
2015,02,15,15,52,12.20
2015,02,15,15,53,12.10
2015,02,15,15,54,12.10
2015,02,15,15,55,12.10
2015,02,15,15,56,12.10
2015,02,15,15,57,12.10
2015,02,15,15,58,12.00
2015,02,15,15,59,12.00
2015,02,15,16,00,11.90
2015,02,15,16,01,11.80
2015,02,15,16,02,11.80
2015,02,15,16,03,11.70
2015,02,15,16,04,11.60
2015,02,15,16,05,11.60
2015,02,15,16,06,11.60
2015,02,15,16,07,11.60
2015,02,15,16,08,11.50
2015,02,15,16,09,11.50
2015,02,15,16,10,11.40
2015,02,15,16,11,11.40
2015,02,15,16,12,11.40
2015,02,15,16,13,11.40
2015,02,15,16,14,11.30
2015,02,15,16,15,11.30
2015,02,15,16,16,11.30
2015,02,15,16,17,11.40
2015,02,15,16,18,11.40
2015,02,15,16,19,11.40
2015,02,15,16,20,11.50
2015,02,15,16,21,11.50
2015,02,15,16,22,11.50
2015,02,15,16,23,11.50
2015,02,15,16,24,11.40
2015,02,15,16,25,11.40
2015,02,15,16,26,11.40
2015,02,15,16,27,11.40
2015,02,15,16,28,11.40
2015,02,15,16,29,11.30
2015,02,15,16,30,11.30
2015,02,15,16,31,11.30
2015,02,15,16,32,11.20
2015,02,15,16,33,11.20
2015,02,15,16,34,11.20
2015,02,15,16,35,11.20
2015,02,15,16,36,11.20
2015,02,15,16,37,11.10
2015,02,15,16,38,11.10
2015,02,15,16,39,11.10
2015,02,15,16,40,11.10
2015,02,15,16,41,11.10
2015,02,15,16,42,11.10
2015,02,15,16,43,11.10
2015,02,15,16,44,11.10
2015,02,15,16,45,11.10
2015,02,15,16,46,11.10
2015,02,15,16,47,11.00
2015,02,15,16,48,11.00
2015,02,15,16,49,11.00
2015,02,15,16,50,11.10
2015,02,15,16,51,11.00
2015,02,15,16,52,11.00
2015,02,15,16,53,11.00
2015,02,15,16,54,11.00
2015,02,15,16,55,11.00
2015,02,15,16,56,10.90
2015,02,15,16,57,10.90
2015,02,15,16,58,10.90
2015,02,15,16,59,10.90
2015,02,15,17,00,10.80
2015,02,15,17,01,10.80
2015,02,15,17,02,10.80
2015,02,15,17,03,10.70
2015,02,15,17,04,10.70
2015,02,15,17,05,10.70
2015,02,15,17,06,10.70
2015,02,15,17,07,10.60
2015,02,15,17,08,10.60
2015,02,15,17,09,10.60
2015,02,15,17,10,10.60
2015,02,15,17,11,10.60
2015,02,15,17,12,10.50
2015,02,15,17,13,10.50
2015,02,15,17,14,10.40
2015,02,15,17,15,10.40
2015,02,15,17,16,10.40
2015,02,15,17,17,10.40
2015,02,15,17,18,10.30
2015,02,15,17,19,10.30
2015,02,15,17,20,10.30
2015,02,15,17,21,10.30
2015,02,15,17,22,10.30
2015,02,15,17,23,10.30
2015,02,15,17,24,10.30
2015,02,15,17,25,10.20
2015,02,15,17,26,10.20
2015,02,15,17,27,10.20
2015,02,15,17,28,10.20
2015,02,15,17,29,10.20
2015,02,15,17,30,10.20
2015,02,15,17,31,10.20
2015,02,15,17,32,10.20
2015,02,15,17,33,10.20
2015,02,15,17,34,10.20
2015,02,15,17,35,10.10
2015,02,15,17,36,10.10
2015,02,15,17,37,10.10
2015,02,15,17,38,10.00
2015,02,15,17,39,9.90
2015,02,15,17,40,9.80
2015,02,15,17,41,9.80
2015,02,15,17,42,9.70
2015,02,15,17,43,9.70
2015,02,15,17,44,9.70
2015,02,15,17,45,9.60
2015,02,15,17,46,9.60
2015,02,15,17,47,9.60
2015,02,15,17,48,9.60
2015,02,15,17,49,9.60
2015,02,15,17,50,9.60